一网星座-0201星 (ONEWEB-0201 )

导读

ONEWEB-0201是英国OneWeb星座(一网星座)的低轨宽带通信卫星,于2021年4月25日发射入轨,隶属于英国主导的OneWeb低轨卫星互联网项目。卫星重约147.5公斤,运行在1200公里高度的近地轨道,配备Ku、Ka波段通信天线,采用氙气电推进系统,设计寿命超5年,主要为全球偏远地区、航空海事等场景提供低时延宽带互联网接入服务,是OneWeb全球星座组网的重要组成部分。

Basic Information
目录编号:
48241
目录名称:
ONEWEB-0201
国际标识:
2021-031AH
轨道中心:
EARTH
卫星名称:
一网星座-0201星
卫星全名:
一网星座-0201星 (ONEWEB-0201 )
卫星状态:
在轨 (已飞行1876 天)
发射日期:
2021-04-25 UTC
国别 :
英国 (GB)
星等 :
--
Orbit Information
数据来源 国际轨道数据 AOE轨道数据
星历时间 2026-06-14T04:22:30+0800
15小时前
查看轨道信息
2026-06-11T05:00:00+0800
3天前
查看轨道信息
半长轴 7583.922km 7583.884km
偏心率 0.0002224 0.0002557
轨道倾角 87.896° 87.897°
近地点辐角 99.152° 117.473°
升交点赤经 290.380° 290.971°
平近点角 260.986° 217.274°
近地点 1204.098km 1203.807km
远地点 1207.472km 1207.687km
周期 109.547分钟 109.546分钟
每日圈数 13.145044 13.145142
Detailed Information
平衡模式:
三轴稳定
覆盖范围:
全球
运营商:
一网卫星公司
运营商所在国:
英国
制造商(研发单位):
一网卫星公司
制造商所在国:
英国
使用方式:
暂无
Satellite Introduction
OneWeb卫星网络由648颗重约125公斤的微型卫星组成,运行在1200公里的轨道上。 每颗卫星都能够提供至少每秒8千兆位的吞吐量,以使用其高吞吐量的Ku频段有效载荷为家庭和移动平台提供互联网接入。该卫星仍在工作。
2D Orbit Map
3D Orbit Map
Orbit Altitude Analysis Chart
Orbit Inclination Analysis Chart
Orbit Comprehensive Analysis Chart
View Comprehensive Chart